Santa Maria, CA

11:09 AM PDT on October 20, 2017 (GMT -0700)
Santa Maria Public Airport / Captain G. Allan Hancock Field

Weather History for KSMX - May, 2013

Change the Weather History Date:

Friday, May 24, 2013

  Actual Average Record
Temperature  
Mean Temperature 55 °F 58 °F  
Max Temperature 69 °F 69 °F 95 °F (1927)
Min Temperature 41 °F 48 °F 35 °F (1924)
Degree Days  
Heating Degree Days 10 7  
Month to date heating degree days 103 178  
Since 1 July heating degree days 2278 2637  
Cooling Degree Days 0 0  
Month to date cooling degree days 9 0  
Year to date cooling degree days 11 6  
Growing Degree Days 5 (Base 50)    
Moisture  
Dew Point 43 °F    
Average Humidity 67    
Maximum Humidity 89    
Minimum Humidity 45    
Precipitation  
Precipitation 0.00 in 0.01 in 0.50 in (1931)
Month to date precipitation 0.04 0.28  
Year to date precipitation 2.49 9.64  
Since 1 July precipitation 6.22  
Sea Level Pressure  
Sea Level Pressure 30.00 in    
Wind  
Wind Speed 9 mph (West)    
Max Wind Speed 22 mph    
Max Gust Speed 25 mph    
Visibility 8 miles    
Events      
T = Trace of Precipitation, MM = Missing Value Source: NWS Daily Summary

Daily Weather History Graph

Daily Weather History Graph

Search for Another Location

Airport or City:

Trip Planner

Search our weather history database for the weather conditions in past years. The results will help you decide how hot, cold, wet, or windy it might be!

Date:

Astronomy

May. 24, 2013 Rise Set
Actual Time 5:52 AM PDT 8:05 PM PDT
Civil Twilight 5:23 AM PDT 8:34 PM PDT
Nautical Twilight 4:48 AM PDT 9:09 PM PDT
Astronomical Twilight 4:10 AM PDT 9:47 PM PDT
Moon 7:54 PM PDT (5/24) 5:27 AM PDT (5/24)
Length of Visible Light 15h 10m
Length of Day
14h 12m
Full, 100% of the Moon is Illuminated
May 24
Full
May 24
Full
May 31
Last Quarter
Jun 8
New
Jun 16
First Quarter

Hourly Weather History & Observations

Time (PDT) Temp. Windchill Dew Point Humidity Pressure Visibility Wind Dir Wind Speed Gust Speed Precip Events Conditions
12:51 AM 45.0 °F 42.6 °F 41.0 °F 86% 29.98 in 7.0 mi South 4.6 mph - N/A   Clear
1:51 AM 44.1 °F 41.5 °F 39.9 °F 85% 29.97 in 7.0 mi South 4.6 mph - N/A   Clear
2:51 AM 44.1 °F - 39.9 °F 85% 29.96 in 7.0 mi Calm Calm - N/A   Clear
3:51 AM 44.1 °F - 39.9 °F 85% 29.97 in 7.0 mi Calm Calm - N/A   Clear
4:06 AM 42.8 °F - 39.2 °F 87% 29.95 in 7.0 mi Calm Calm - N/A   Partly Cloudy
4:51 AM 42.1 °F 40.2 °F 39.0 °F 89% 29.97 in 7.0 mi SSE 3.5 mph - N/A   Clear
5:25 AM 42.8 °F 40.1 °F 37.4 °F 81% 29.97 in 7.0 mi SSE 4.6 mph - N/A   Scattered Clouds
5:34 AM 42.8 °F 41.1 °F 37.4 °F 81% 29.97 in 7.0 mi SSE 3.5 mph - N/A   Mostly Cloudy
5:51 AM 43.0 °F 41.3 °F 39.0 °F 86% 29.99 in 7.0 mi SE 3.5 mph - N/A   Mostly Cloudy
6:51 AM 46.0 °F 43.9 °F 43.0 °F 89% 30.00 in 5.0 mi South 4.6 mph - N/A   Mostly Cloudy
7:39 AM 50.0 °F - 44.6 °F 82% 30.00 in 5.0 mi SE 3.5 mph - N/A   Haze
7:51 AM 51.1 °F - 45.0 °F 80% 30.01 in 5.0 mi SE 3.5 mph - N/A   Haze
8:51 AM 55.0 °F - 44.1 °F 67% 30.02 in 8.0 mi Calm Calm - N/A   Clear
9:51 AM 61.0 °F - 44.1 °F 54% 30.01 in 10.0 mi West 3.5 mph - N/A   Clear
10:51 AM 66.0 °F - 44.1 °F 45% 30.01 in 10.0 mi West 5.8 mph - N/A   Clear
11:51 AM 68.0 °F - 46.0 °F 45% 30.01 in 10.0 mi NW 15.0 mph - N/A   Clear
12:51 PM 66.0 °F - 46.0 °F 48% 30.01 in 10.0 mi NW 16.1 mph - N/A   Clear
1:51 PM 64.9 °F - 45.0 °F 48% 30.01 in 10.0 mi NW 15.0 mph - N/A   Clear
2:51 PM 64.0 °F - 46.0 °F 52% 30.02 in 10.0 mi NW 18.4 mph 24.2 mph N/A   Clear
3:51 PM 63.0 °F - 46.0 °F 54% 30.02 in 9.0 mi NW 17.3 mph - N/A   Clear
4:51 PM 62.1 °F - 45.0 °F 53% 30.01 in 9.0 mi WNW 16.1 mph 25.3 mph N/A   Clear
5:51 PM 60.1 °F - 46.0 °F 60% 30.01 in 9.0 mi WNW 13.8 mph - N/A   Clear
6:51 PM 55.9 °F - 45.0 °F 67% 30.01 in 8.0 mi West 11.5 mph - N/A   Clear
7:51 PM 53.1 °F - 45.0 °F 74% 30.01 in 7.0 mi WNW 12.7 mph - N/A   Partly Cloudy
8:51 PM 51.1 °F - 46.0 °F 83% 30.02 in 7.0 mi WNW 11.5 mph - N/A   Partly Cloudy
9:31 PM 51.8 °F - 46.4 °F 82% 30.02 in 7.0 mi West 11.5 mph - N/A   Mostly Cloudy
9:41 PM 50.0 °F - 46.4 °F 87% 30.02 in 7.0 mi West 9.2 mph - N/A   Scattered Clouds
9:51 PM 50.0 °F - 46.0 °F 86% 30.03 in 7.0 mi West 10.4 mph - N/A   Scattered Clouds
10:51 PM 50.0 °F - 45.0 °F 83% 30.04 in 7.0 mi West 8.1 mph - N/A   Scattered Clouds
11:12 PM 48.2 °F - 44.6 °F 87% 30.04 in 7.0 mi West 8.1 mph - N/A   Mostly Cloudy
11:51 PM 48.0 °F - 44.1 °F 86% 30.05 in 6.0 mi West 4.6 mph - N/A   Overcast